Regional Weather Roundup
Issued by NWS Upton, NY

Current Version | Previous Version | Graphics & Text | Print | Product List | Glossary Off
Versions: 1 2 3 4 5 6 7 8 9 10 11 12 13 14 15 16 17 18 19 20 21 22 23 24 25 26 27 28 29 30 31 32 33 34 35 36 37 38 39 40 41 42 43 44 45 46 47 48 49 50

000
ASUS41 KOKX 220209
RWROKX

REGIONAL WEATHER ROUNDUP
NATIONAL WEATHER SERVICE NEW YORK NY
1000 PM EDT FRI JUL 21 2017

NOTE: "FAIR" INDICATES FEW OR NO CLOUDS BELOW 12,000 FEET WITH NO
SIGNIFICANT WEATHER AND/OR OBSTRUCTIONS TO VISIBILITY.

NYZ071-072-176-178-NJZ106-104-220300-
NEW YORK CITY METRO AREA

CITY           SKY/WX    TMP DP  RH WIND       PRES   REMARKS
Central Park   CLOUDY    86  67  52 W7        29.89R
Bronx Bot Gard   N/A     86  66  51 SW5       29.89R
LaGuardia APRT MOCLDY    89  69  51 W14       29.86R HX  93
Kennedy INTL   MOCLDY    80  75  84 S9        29.88R
Breezy Point     N/A     75 N/A N/A S5          N/A
Newark/Liberty CLOUDY    87  68  52 W7        29.86R HX  90
Teterboro      MOCLDY    87  68  52 SW8       29.85R HX  90
$$

NYZ177-179-078>081-220300-
LONG ISLAND NEW YORK

CITY           SKY/WX    TMP DP  RH WIND       PRES   REMARKS
Jones Beach      N/A     77 N/A N/A SW5         N/A
Matinecock PT    N/A     84 N/A N/A SW7         N/A
Farmingdale    CLOUDY    81  71  71 SW8       29.87R
MacArthur/ISP  CLOUDY    80  73  79 SW7       29.87R
Shirley        CLOUDY    81  73  76 SW7       29.88R
Mt Sinai Harb    N/A    N/A N/A N/A S5          N/A
Westhampton    CLOUDY    79  69  71 SW10      29.89R
East Hampton   FAIR      76  71  83 W5        29.86R
Montauk          N/A     78  71  79 SW3       29.86R
$$

NYZ052-065-067-220300-
HUDSON VALLEY

CITY           SKY/WX    TMP DP  RH WIND       PRES   REMARKS
White Plains   NOT AVBL
Larchmont Harb   N/A     82 N/A N/A SW7         N/A
Croton O-T Hud   N/A     84 N/A N/A MISG        N/A
Newburgh       MOCLDY    79  73  83 NW12      29.89R
Montgomery     CLOUDY    78  71  79 CALM      29.88R
Poughkeepsie   CLOUDY    77  68  73 CALM      29.85R
Albany         PTCLDY    75  63  66 NW7       29.88R
$$

NJZ001-105-106-008-010-013-015-019>022-104-220300-
NEW JERSEY

CITY           SKY/WX    TMP DP  RH WIND       PRES   REMARKS
Newark/Liberty CLOUDY    87  68  52 W7        29.86R HX  90
Teterboro      MOCLDY    87  68  52 SW8       29.85R HX  90
Caldwell       CLOUDY    83  69  62 CALM      29.87R
Somerville     MOCLDY    76  74  93 CALM      29.86R
Linden         FAIR      86  66  51 CALM      29.87R
Perth Amboy      N/A     86 N/A N/A SW5         N/A
Sussex         MOCLDY    75  73  93 CALM      29.89R
Andover          N/A     75  72  90 CALM      29.90R
Trenton        CLOUDY    84  71  65 SW3       29.88R
Millville      CLOUDY    77  77 100 CALM      29.90R
Atlantic City  MOCLDY    82  74  76 SW7       29.90R
Wrightstown    CLOUDY    84  71  64 W7        29.86R
Toms River     CLOUDY    82  73  74 SW6       29.90R
Belmar         MOCLDY    82  75  79 S5        29.90R
$$

PAZ047>061-062-071-220300-
EASTERN PENNSYLVANIA

CITY           SKY/WX    TMP DP  RH WIND       PRES   REMARKS
Philadelphia   CLOUDY    87  70  56 SW7       29.89R HX  92
Allentown      CLOUDY    81  69  67 W3        29.90R
Scranton       MOCLDY    76  72  87 CALM      29.91R
$$

CTZ002-004>006-009-010-012-RIZ004-006-007-MAZ004-011-015-220300-
SOUTHERN NEW ENGLAND
 IN CT

CITY           SKY/WX    TMP DP  RH WIND       PRES   REMARKS
Bradley INTL   PTCLDY    79  70  74 CALM      29.85R
Hartford       PTCLDY    79  70  74 CALM      29.83R
Danbury        CLOUDY    75  70  84 SW3       29.89R
Wtrbury/Oxford CLOUDY    73  64  73 CALM      29.88S
Bridgeport     CLOUDY    83  70  64 SW5       29.85R
Meriden        PTCLDY    73  70  90 CALM      29.85R
New Haven      CLOUDY    80  69  69 CALM      29.85R
Chester        FAIR      77  68  73 CALM      29.87R
Groton         MOCLDY    75  68  78 CALM      29.84R
Wilimantic     PTCLDY    78  70  76 W3        29.85R

 IN RI

CITY           SKY/WX    TMP DP  RH WIND       PRES   REMARKS
Providence     CLOUDY    79  71  76 SW6       29.84R
Block Island   PTCLDY    75  69  81 SW12      29.86R
Westerly       PTCLDY    75  69  81 SW3       29.85R
 IN MA

CITY           SKY/WX    TMP DP  RH WIND       PRES   REMARKS
Boston         PTCLDY    83  58  42 W13       29.81R
Worcester      CLOUDY    73  62  68 W6        29.88S
Westfield      PTCLDY    73  71  93 CALM      29.85R
Provincetown   CLEAR     73  68  84 SW5       29.82R
Nantucket      CLOUDY    73  71  93 W12       29.83S
$$

ANZ330-335-338-340-345-350-353-355-220300-
COASTAL MARINE OBSERVATIONS


STATION/POSITION TIME  SKY/WX   TEMP    WIND        PRES    VSBY  WAVE
                                AIR SEA DIR/SP/G                  HT/PER
                 (UTC)          (F)     (DEG/KT/KT) (MB)    (MI)  (FT/S)
NY HARB ENTRANCE 0150            78 76  200/ 12/ 14 1011.1          2/ 6
20 S FIRE ISLAND 0150            78 77  220/ 10/ 12 1011.2          2/ 5
GREAT SOUTH BAY  0130            80 83  230/ 12/ 14   N/A
23 SSW MONTAUK P 0150            78 76              1011.4          3/ 7
15 E BARNEGAT LI 0130               79                N/A           3/ 5
HUDSON CANYON    0150            81 80  220/  6/  8 1011.6          2/ 6
KINGS POINT      0130            83 73  280/  4/  5 1011.0
EXECUTION ROCKS  0145            81     240/  6/ 10   N/A
CENTRAL LI SOUND 0130            79     230/  6/  8   N/A           1
EASTERN LI SOUND NOT AVBL
ROBBINS REEF     0124                   250/  5/  7 1011.8
$$


>>>>>>>>>>>>>>>>>>>>>>>>>>>> KEY <<<<<<<<<<<<<<<<<<<<<<<<<<<
>                                                          <
>     SKY/WX - Sky Condition/Present Weather               <
>     TMP    - Temperature in Fahrenheit                   <
>     DP     - Dew Point in Fahrenheit                     <
>     RH     - Relative Humidity in Percent                <
>     WIND   - Direction (from) and Speed in MPH           <
>     PRES   - Mean Sea Level Pressure (inches of Hg)      <
>     WCI    - Wind Chill Index                            <
>     VSB    - VISIBILITY IN MILES                         <
>     HX     - HEAT INDEX                                  <
>     TC     - TEMPERATURE IN CELSIUS                      <
>     VRB    - VARIABLE WIND DIRECTION                     <
>                                                          <
>>>>>>>>>>>>>>>>>>>>>>>>>>>> KEY <<<<<<<<<<<<<<<<<<<<<<<<<<<



USA.gov is the U.S. government's official web portal to all federal, state and local government web resources and services.